Regional Weather Roundup
Issued by NWS

Home | Current Version | Previous Version | Text Only | Print | Product List | Glossary On
Versions: 1 2 3 4 5 6 7 8 9 10 11 12 13 14 15 16 17 18 19 20 21 22 23 24 25 26 27 28 29 30 31 32 33 34 35 36 37 38 39 40 41 42 43 44 45 46 47 48 49 50
000
ASUS46 KSEW 110910
RWRWA

WASHINGTON REGIONAL WEATHER ROUNDUP
NATIONAL WEATHER SERVICE SEATTLE WA
100 AM PST SUN DEC 11 2016

NOTE:"FAIR" INDICATES FEW OR NO CLOUDS BELOW 12,000 FEET WITH NO
SIGNIFICANT WEATHER AND/OR OBSTRUCTIONS TO VISIBILITY.

WAZ507-509-555>559-111000-
SEATTLE, TACOMA, EVERETT, AND VICINITY

CITY           SKY/WX    TMP DP  RH WIND       PRES   REMARKS
EVERETT        MOCLDY    40  37  89 S24       29.84F
BOEING FIELD   LGT RAIN  43  40  89 S12       29.92R
RENTON         LGT RAIN  42  39  89 S10       29.92R
SEATAC AIRPORT LGT RAIN  42  38  85 S17G25    29.91R
JBLM-MCCHORD   LGT RAIN  39  39 100 S12       29.93R
PUYALLUP       LGT RAIN  41  39  93 CALM      29.94R
BREMERTON      MOCLDY    37  37 100 S13       29.91R
JBLM-FT LEWIS  MOCLDY    40  40  99 S14       29.93R
TACOMA NARROWS CLOUDY    41  39  93 S15G21    29.92R
$$

WAZ001-503-506-510-514-515-111000-
NORTH INTERIOR

CITY           SKY/WX    TMP DP  RH WIND       PRES   REMARKS
BELLINGHAM     CLOUDY    42  38  85 S12G18    29.81S
FRIDAY HARBOR  RAIN      42  39  89 S10G18    29.83R
EASTSOUND      LGT RAIN  41  39  93 S10G20    29.79R
PORT ANGELES   CLOUDY    39  36  89 W12       29.82R
EDIZ HOOK      PTSUNNY   43  37  79 W10       29.82R
PORT TOWNSEND    N/A     37  36  93 CALM      29.83S
NAS WHIDBEY    CLOUDY    44  35  70 S24       29.86S
ARLINGTON      CLOUDY    43  30  61 SE15G22   29.89R
BURLINGTON     CLOUDY    43  37  81 SE8G17    29.84R
$$

WAZ020-022-039-040-504-511-512-111000-
SOUTHWEST INTERIOR

CITY           SKY/WX    TMP DP  RH WIND       PRES   REMARKS
SHELTON        LGT RAIN  40  38  93 SW7       29.89R
OLYMPIA        LGT RAIN  40  39  97 SW5       29.93S
CHEHALIS       CLOUDY    41  39  93 S10G16    29.96R
KELSO          RAIN      41  40  96 S10       30.01R
VANCOUVER      LGT RAIN  42  40  92 VRB5      30.03R
SCAPPOOSE, OR  MIX PCPN  36  36 100 VRB5      30.03R
PORTLAND, OR   LGT RAIN  44  40  85 SW10      30.04R
$$

WAZ021-516-517-111000-
WASHINGTON COAST

CITY           SKY/WX    TMP DP  RH WIND       PRES   REMARKS
FORKS          LGT RAIN  43  40  89 W20G29    29.84R
HOQUIAM        PTCLDY    45  39  79 SW16      29.91R
ASTORIA, OR    PTCLDY    48  37  65 SW9       29.96R
$$

WAZ019-023-024-040-567>569-111000-
CASCADE MOUNTAINS AND COLUMBIA GORGE

CITY           SKY/WX    TMP DP  RH WIND       PRES   REMARKS
STAMPEDE PASS  CLOUDY    27  27 100 VRB6      29.79S FOG
TROUTDALE, OR  CLOUDY    43  38  82 S6        30.03S
THE DALLES, OR MOCLDY    22  19  89 CALM      30.04S
$$

WAZ026-027-041>044-520-521-111000-
EAST SLOPES

CITY           SKY/WX    TMP DP  RH WIND       PRES   REMARKS
OMAK           CLOUDY    22  18  85 CALM      29.96R
WENATCHEE      CLOUDY    21  18  88 NW7       29.97R
ELLENSBURG     CLOUDY    21  18  88 CALM      29.95R FOG
YAKIMA         CLOUDY    23  19  85 CALM      30.00R
$$

WAZ028-034-035-111000-
COLUMBIA BASIN

CITY           SKY/WX    TMP DP  RH WIND       PRES   REMARKS
EPHRATA        CLOUDY    24  19  81 CALM      29.96R HAZE
MOSES LAKE     CLOUDY    24  22  91 CALM      29.98R FOG
PASCO          CLOUDY    16  15  96 CALM      30.05S FOG
HERMISTON, OR  CLEAR     13  11  92 S6        30.01S FOG
$$

WAZ036>038-111000-
NORTHEAST WASHINGTON

CITY           SKY/WX    TMP DP  RH WIND       PRES   REMARKS
SPOKANE GEIGER CLOUDY    24  21  88 SE5       29.89S
SPOKANE FELTS  CLOUDY    26  24  92 CALM      29.92S FOG
FAIRCHILD AFB  CLOUDY    23  23  99 CALM      29.88R
COEURDALENE,ID LGT SNOW  23  21  93 NE5       29.90F FOG
DEER PARK      LGT SNOW  23  20  88 NW3       29.91R FOG
$$

WAZ029>033-111000-
SOUTHEAST WASHINGTON

CITY           SKY/WX    TMP DP  RH WIND       PRES   REMARKS
PULLMAN        LGT SNOW  30  29  96 S6        29.93S FOG
LEWISTON, ID   CLOUDY    23  20  88 SE3       29.99S
WALLA WALLA    MOCLDY    24  20  84 SE3       29.98S FOG
PENDLETON, OR  PTCLDY    33  25  72 VRB6      29.97R
$$



USA.gov is the U.S. government's official web portal to all federal, state and local government web resources and services.